Time,TemperatureF,DewpointF,PressureIn,WindDirection,WindDirectionDegrees,WindSpeedMPH,WindSpeedGustMPH,Humidity,HourlyPrecipIn,Conditions,Clouds,dailyrainin,SoftwareType,DateUTC
2013-07-18 00:03:00,78.3,68.9,30.00,South,175,0.0,0.0,73,0.00,,,0.00,Wunderground v.1.15,2013-07-18 05:03:00,
2013-07-18 00:08:00,78.1,68.7,30.00,SSE,168,1.0,1.0,73,0.00,,,0.00,Wunderground v.1.15,2013-07-18 05:08:00,
2013-07-18 00:14:00,77.9,68.9,30.00,SSE,168,0.0,2.0,74,0.00,,,0.00,Wunderground v.1.15,2013-07-18 05:14:00,
2013-07-18 00:19:00,77.9,68.9,30.00,SSE,168,0.0,2.0,74,0.00,,,0.00,Wunderground v.1.15,2013-07-18 05:19:00,
2013-07-18 00:25:00,77.7,68.7,30.00,SSE,168,0.0,1.0,74,0.00,,,0.00,Wunderground v.1.15,2013-07-18 05:25:00,
2013-07-18 00:30:00,77.7,68.7,30.00,SSE,168,0.0,0.0,74,0.00,,,0.00,Wunderground v.1.15,2013-07-18 05:30:00,
2013-07-18 00:35:00,77.6,69.0,30.00,South,171,0.0,0.0,75,0.00,,,0.00,Wunderground v.1.15,2013-07-18 05:35:00,
2013-07-18 00:40:00,77.6,69.0,30.00,South,171,0.0,0.0,75,0.00,,,0.00,Wunderground v.1.15,2013-07-18 05:40:00,
2013-07-18 00:46:00,77.4,68.9,30.00,South,171,0.0,0.0,75,0.00,,,0.00,Wunderground v.1.15,2013-07-18 05:46:00,
2013-07-18 00:51:00,77.4,68.9,30.00,South,172,0.0,0.0,75,0.00,,,0.00,Wunderground v.1.15,2013-07-18 05:51:00,
2013-07-18 00:56:00,77.2,68.7,30.00,South,173,0.0,0.0,75,0.00,,,0.00,Wunderground v.1.15,2013-07-18 05:56:00,
2013-07-18 01:02:00,77.2,69.0,30.00,South,171,0.0,0.0,76,0.00,,,0.00,Wunderground v.1.15,2013-07-18 06:02:00,
2013-07-18 01:08:00,77.0,68.9,30.00,South,173,1.0,1.0,76,0.00,,,0.00,Wunderground v.1.15,2013-07-18 06:08:00,
2013-07-18 01:13:00,76.8,68.7,30.00,South,171,0.0,4.0,76,0.00,,,0.00,Wunderground v.1.15,2013-07-18 06:13:00,
2013-07-18 01:18:00,76.8,68.7,30.00,South,169,0.0,5.0,76,0.00,,,0.00,Wunderground v.1.15,2013-07-18 06:18:00,
2013-07-18 01:24:00,76.8,68.7,30.00,SSE,168,0.0,2.0,76,0.00,,,0.00,Wunderground v.1.15,2013-07-18 06:24:00,
2013-07-18 01:29:00,76.8,68.7,30.00,SSW,199,3.0,3.0,76,0.00,,,0.00,Wunderground v.1.15,2013-07-18 06:29:00,
2013-07-18 01:34:00,77.0,68.9,29.99,South,190,0.0,1.0,76,0.00,,,0.00,Wunderground v.1.15,2013-07-18 06:34:00,
2013-07-18 01:39:00,77.2,68.7,29.99,South,176,0.0,5.0,75,0.00,,,0.00,Wunderground v.1.15,2013-07-18 06:39:00,
2013-07-18 01:45:00,77.2,68.7,29.99,SW,221,0.0,3.0,75,0.00,,,0.00,Wunderground v.1.15,2013-07-18 06:45:00,
2013-07-18 01:50:00,77.2,68.7,29.99,South,175,4.0,4.0,75,0.00,,,0.00,Wunderground v.1.15,2013-07-18 06:50:00,
2013-07-18 01:55:00,77.0,68.9,29.99,South,174,0.0,4.0,76,0.00,,,0.00,Wunderground v.1.15,2013-07-18 06:55:00,
2013-07-18 02:00:00,77.0,68.9,29.99,South,180,2.0,2.0,76,0.00,,,0.00,Wunderground v.1.15,2013-07-18 07:00:00,
2013-07-18 02:05:00,76.8,68.7,29.99,SSE,167,3.0,5.0,76,0.00,,,0.00,Wunderground v.1.15,2013-07-18 07:05:00,
2013-07-18 02:10:00,76.8,68.7,29.99,South,178,0.0,1.0,76,0.00,,,0.00,Wunderground v.1.15,2013-07-18 07:10:00,
2013-07-18 02:15:00,76.7,68.9,29.99,South,169,5.0,6.0,77,0.00,,,0.00,Wunderground v.1.15,2013-07-18 07:15:00,
2013-07-18 02:20:00,76.7,68.9,29.99,SSW,193,0.0,2.0,77,0.00,,,0.00,Wunderground v.1.15,2013-07-18 07:20:00,
2013-07-18 02:25:00,76.5,68.7,29.99,South,171,0.0,4.0,77,0.00,,,0.00,Wunderground v.1.15,2013-07-18 07:25:00,
2013-07-18 02:30:00,76.5,69.1,29.99,South,176,3.0,6.0,78,0.00,,,0.00,Wunderground v.1.15,2013-07-18 07:30:00,
2013-07-18 02:35:00,76.3,68.9,29.99,South,170,3.0,6.0,78,0.00,,,0.00,Wunderground v.1.15,2013-07-18 07:35:00,
2013-07-18 02:40:00,76.3,68.9,29.99,South,171,4.0,4.0,78,0.00,,,0.00,Wunderground v.1.15,2013-07-18 07:40:00,
2013-07-18 02:45:00,76.1,69.1,29.99,South,181,0.0,6.0,79,0.00,,,0.00,Wunderground v.1.15,2013-07-18 07:45:00,
2013-07-18 02:50:00,76.0,69.0,29.99,SSE,163,2.0,2.0,79,0.00,,,0.00,Wunderground v.1.15,2013-07-18 07:50:00,
2013-07-18 02:55:00,75.8,68.8,29.99,South,170,0.0,4.0,79,0.00,,,0.00,Wunderground v.1.15,2013-07-18 07:55:00,
2013-07-18 03:00:00,75.8,68.8,29.98,South,172,0.0,1.0,79,0.00,,,0.00,Wunderground v.1.15,2013-07-18 08:00:00,
2013-07-18 03:05:00,76.0,69.0,29.98,South,180,0.0,1.0,79,0.00,,,0.00,Wunderground v.1.15,2013-07-18 08:05:00,
2013-07-18 03:10:00,75.8,68.8,29.98,South,181,2.0,2.0,79,0.00,,,0.00,Wunderground v.1.15,2013-07-18 08:10:00,
2013-07-18 03:15:00,75.8,68.8,29.98,South,182,0.0,2.0,79,0.00,,,0.00,Wunderground v.1.15,2013-07-18 08:15:00,
2013-07-18 03:20:00,75.8,68.8,29.98,SSW,202,0.0,1.0,79,0.00,,,0.00,Wunderground v.1.15,2013-07-18 08:20:00,
2013-07-18 03:25:00,75.8,68.8,29.98,South,171,3.0,4.0,79,0.00,,,0.00,Wunderground v.1.15,2013-07-18 08:25:00,
2013-07-18 03:30:00,75.6,69.0,29.98,South,174,3.0,3.0,80,0.00,,,0.00,Wunderground v.1.15,2013-07-18 08:30:00,
2013-07-18 03:35:00,75.6,69.0,29.98,South,185,2.0,4.0,80,0.00,,,0.00,Wunderground v.1.15,2013-07-18 08:35:00,
2013-07-18 03:40:00,75.6,69.0,29.98,South,180,4.0,4.0,80,0.00,,,0.00,Wunderground v.1.15,2013-07-18 08:40:00,
2013-07-18 03:46:00,75.4,68.8,29.97,SSE,167,2.0,8.0,80,0.00,,,0.00,Wunderground v.1.15,2013-07-18 08:46:00,
2013-07-18 03:51:00,75.3,69.1,29.97,South,175,0.0,4.0,81,0.00,,,0.00,Wunderground v.1.15,2013-07-18 08:51:00,
2013-07-18 03:56:00,75.1,68.9,29.97,South,171,0.0,7.0,81,0.00,,,0.00,Wunderground v.1.15,2013-07-18 08:56:00,
2013-07-18 04:01:00,74.9,68.7,29.96,SSE,168,2.0,2.0,81,0.00,,,0.00,Wunderground v.1.15,2013-07-18 09:01:00,
2013-07-18 04:06:00,74.9,68.7,29.96,South,173,3.0,4.0,81,0.00,,,0.00,Wunderground v.1.15,2013-07-18 09:06:00,
2013-07-18 04:11:00,74.7,68.8,29.96,South,183,5.0,7.0,82,0.00,,,0.00,Wunderground v.1.15,2013-07-18 09:11:00,
2013-07-18 04:16:00,74.7,68.8,29.96,South,180,3.0,7.0,82,0.00,,,0.00,Wunderground v.1.15,2013-07-18 09:16:00,
2013-07-18 04:21:00,74.9,69.0,29.96,South,172,2.0,5.0,82,0.00,,,0.00,Wunderground v.1.15,2013-07-18 09:21:00,
2013-07-18 04:26:00,74.7,68.8,29.96,South,184,2.0,7.0,82,0.00,,,0.00,Wunderground v.1.15,2013-07-18 09:26:00,
2013-07-18 04:31:00,74.7,68.8,29.95,SSW,207,3.0,3.0,82,0.00,,,0.00,Wunderground v.1.15,2013-07-18 09:31:00,
2013-07-18 04:36:00,74.7,68.8,29.95,SSE,163,5.0,6.0,82,0.00,,,0.00,Wunderground v.1.15,2013-07-18 09:36:00,
2013-07-18 04:41:00,74.9,68.7,29.95,South,173,3.0,5.0,81,0.00,,,0.00,Wunderground v.1.15,2013-07-18 09:41:00,
2013-07-18 04:46:00,74.9,68.7,29.95,South,190,2.0,5.0,81,0.00,,,0.00,Wunderground v.1.15,2013-07-18 09:46:00,
2013-07-18 04:51:00,74.9,68.7,29.95,South,175,3.0,5.0,81,0.00,,,0.00,Wunderground v.1.15,2013-07-18 09:51:00,
2013-07-18 04:56:00,74.7,68.5,29.95,South,180,0.0,5.0,81,0.00,,,0.00,Wunderground v.1.15,2013-07-18 09:56:00,
2013-07-18 05:01:00,74.7,68.8,29.95,SSE,165,1.0,3.0,82,0.00,,,0.00,Wunderground v.1.15,2013-07-18 10:01:00,
2013-07-18 05:06:00,74.6,68.7,29.95,SSE,165,3.0,5.0,82,0.00,,,0.00,Wunderground v.1.15,2013-07-18 10:06:00,
2013-07-18 05:11:00,74.4,68.9,29.95,SSE,168,0.0,1.0,83,0.00,,,0.00,Wunderground v.1.15,2013-07-18 10:11:00,
2013-07-18 05:16:00,74.4,68.9,29.95,South,181,0.0,3.0,83,0.00,,,0.00,Wunderground v.1.15,2013-07-18 10:16:00,
2013-07-18 05:21:00,74.4,68.9,29.95,SSE,155,0.0,1.0,83,0.00,,,0.00,Wunderground v.1.15,2013-07-18 10:21:00,
2013-07-18 05:27:00,74.4,68.9,29.95,South,189,3.0,3.0,83,0.00,,,0.00,Wunderground v.1.15,2013-07-18 10:27:00,
2013-07-18 05:32:00,74.4,68.5,29.95,South,176,3.0,5.0,82,0.00,,,0.00,Wunderground v.1.15,2013-07-18 10:32:00,
2013-07-18 05:37:00,74.4,68.5,29.95,South,180,0.0,5.0,82,0.00,,,0.00,Wunderground v.1.15,2013-07-18 10:37:00,
2013-07-18 05:42:00,74.6,68.7,29.95,SSW,209,0.0,1.0,82,0.00,,,0.00,Wunderground v.1.15,2013-07-18 10:42:00,
2013-07-18 05:47:00,74.6,68.7,29.95,SW,224,1.0,4.0,82,0.00,,,0.00,Wunderground v.1.15,2013-07-18 10:47:00,
2013-07-18 05:52:00,74.6,68.7,29.95,SSW,203,0.0,9.0,82,0.00,,,0.00,Wunderground v.1.15,2013-07-18 10:52:00,
2013-07-18 05:57:00,74.7,68.5,29.95,SSW,213,0.0,9.0,81,0.00,,,0.00,Wunderground v.1.15,2013-07-18 10:57:00,
2013-07-18 06:02:00,74.7,68.5,29.95,South,183,1.0,3.0,81,0.00,,,0.00,Wunderground v.1.15,2013-07-18 11:02:00,
2013-07-18 06:07:00,74.7,68.5,29.95,SSW,202,0.0,5.0,81,0.00,,,0.00,Wunderground v.1.15,2013-07-18 11:07:00,
2013-07-18 06:12:00,74.9,68.7,29.95,SSW,197,0.0,5.0,81,0.00,,,0.00,Wunderground v.1.15,2013-07-18 11:12:00,
2013-07-18 06:17:00,74.9,68.7,29.95,WSW,240,3.0,6.0,81,0.00,,,0.00,Wunderground v.1.15,2013-07-18 11:17:00,
2013-07-18 06:22:00,74.9,68.7,29.95,South,176,0.0,5.0,81,0.00,,,0.00,Wunderground v.1.15,2013-07-18 11:22:00,
2013-07-18 06:27:00,74.9,68.7,29.95,SW,217,5.0,7.0,81,0.00,,,0.00,Wunderground v.1.15,2013-07-18 11:27:00,
2013-07-18 06:32:00,74.9,68.7,29.95,SSW,208,0.0,7.0,81,0.00,,,0.00,Wunderground v.1.15,2013-07-18 11:32:00,
2013-07-18 06:37:00,74.9,68.7,29.95,South,172,4.0,11.0,81,0.00,,,0.00,Wunderground v.1.15,2013-07-18 11:37:00,
2013-07-18 06:42:00,75.1,68.9,29.95,SW,215,2.0,6.0,81,0.00,,,0.00,Wunderground v.1.15,2013-07-18 11:42:00,
2013-07-18 06:47:00,75.1,68.9,29.94,South,190,3.0,9.0,81,0.00,,,0.00,Wunderground v.1.15,2013-07-18 11:47:00,
2013-07-18 06:52:00,75.3,68.7,29.94,South,174,0.0,5.0,80,0.00,,,0.00,Wunderground v.1.15,2013-07-18 11:52:00,
2013-07-18 06:57:00,75.3,68.7,29.94,South,187,3.0,7.0,80,0.00,,,0.00,Wunderground v.1.15,2013-07-18 11:57:00,
2013-07-18 07:02:00,75.4,68.8,29.94,SW,230,3.0,5.0,80,0.00,,,0.00,Wunderground v.1.15,2013-07-18 12:02:00,
2013-07-18 07:07:00,75.6,69.0,29.94,SW,233,3.0,6.0,80,0.00,,,0.00,Wunderground v.1.15,2013-07-18 12:07:00,
2013-07-18 07:12:00,75.6,69.0,29.94,SW,229,3.0,6.0,80,0.00,,,0.00,Wunderground v.1.15,2013-07-18 12:12:00,
2013-07-18 07:17:00,75.8,68.8,29.94,SW,227,6.0,7.0,79,0.00,,,0.00,Wunderground v.1.15,2013-07-18 12:17:00,
2013-07-18 07:22:00,76.0,69.0,29.94,South,175,1.0,10.0,79,0.00,,,0.00,Wunderground v.1.15,2013-07-18 12:22:00,
2013-07-18 07:27:00,76.1,69.1,29.94,South,178,1.0,10.0,79,0.00,,,0.00,Wunderground v.1.15,2013-07-18 12:27:00,
2013-07-18 07:32:00,76.1,68.7,29.93,South,180,2.0,6.0,78,0.00,,,0.00,Wunderground v.1.15,2013-07-18 12:32:00,
2013-07-18 07:37:00,76.3,68.9,29.93,WSW,239,1.0,6.0,78,0.00,,,0.00,Wunderground v.1.15,2013-07-18 12:37:00,
2013-07-18 07:43:00,76.7,69.3,29.93,SSE,163,4.0,9.0,78,0.00,,,0.00,Wunderground v.1.15,2013-07-18 12:43:00,
2013-07-18 07:48:00,76.8,69.4,29.93,SSE,160,1.0,9.0,78,0.00,,,0.00,Wunderground v.1.15,2013-07-18 12:48:00,
2013-07-18 07:53:00,77.0,69.2,29.93,WSW,246,7.0,12.0,77,0.00,,,0.00,Wunderground v.1.15,2013-07-18 12:53:00,
2013-07-18 07:58:00,77.2,69.4,29.93,SSW,205,3.0,12.0,77,0.00,,,0.00,Wunderground v.1.15,2013-07-18 12:58:00,
2013-07-18 08:03:00,77.4,69.6,29.93,SSW,205,5.0,5.0,77,0.00,,,0.00,Wunderground v.1.15,2013-07-18 13:03:00,
2013-07-18 08:08:00,77.6,69.4,29.93,South,180,3.0,9.0,76,0.00,,,0.00,Wunderground v.1.15,2013-07-18 13:08:00,
2013-07-18 08:13:00,77.6,69.4,29.93,South,188,2.0,9.0,76,0.00,,,0.00,Wunderground v.1.15,2013-07-18 13:13:00,
2013-07-18 08:18:00,77.7,69.1,29.93,South,189,4.0,9.0,75,0.00,,,0.00,Wunderground v.1.15,2013-07-18 13:18:00,
2013-07-18 08:23:00,77.9,69.3,29.93,SSW,197,1.0,10.0,75,0.00,,,0.00,Wunderground v.1.15,2013-07-18 13:23:00,
2013-07-18 08:28:00,78.3,69.3,29.93,SSE,164,3.0,10.0,74,0.00,,,0.00,Wunderground v.1.15,2013-07-18 13:28:00,
2013-07-18 08:33:00,78.6,69.6,29.93,South,187,1.0,9.0,74,0.00,,,0.00,Wunderground v.1.15,2013-07-18 13:33:00,
2013-07-18 08:38:00,79.0,69.2,29.93,South,188,0.0,9.0,72,0.00,,,0.00,Wunderground v.1.15,2013-07-18 13:38:00,
2013-07-18 08:43:00,79.2,69.4,29.93,SW,223,0.0,4.0,72,0.00,,,0.00,Wunderground v.1.15,2013-07-18 13:43:00,
2013-07-18 08:48:00,79.6,69.8,29.92,South,171,0.0,10.0,72,0.00,,,0.00,Wunderground v.1.15,2013-07-18 13:48:00,
2013-07-18 08:53:00,79.8,69.6,29.92,SW,228,1.0,7.0,71,0.00,,,0.00,Wunderground v.1.15,2013-07-18 13:53:00,
2013-07-18 08:58:00,80.1,69.4,29.92,SSW,197,4.0,7.0,70,0.00,,,0.00,Wunderground v.1.15,2013-07-18 13:58:00,
2013-07-18 09:03:00,80.3,69.2,29.92,SSW,209,2.0,13.0,69,0.00,,,0.00,Wunderground v.1.15,2013-07-18 14:03:00,
2013-07-18 09:08:00,80.3,69.2,29.92,SW,232,2.0,14.0,69,0.00,,,0.00,Wunderground v.1.15,2013-07-18 14:08:00,
2013-07-18 09:13:00,80.3,69.2,29.92,SSW,208,5.0,16.0,69,0.00,,,0.00,Wunderground v.1.15,2013-07-18 14:13:00,
2013-07-18 09:18:00,80.7,69.2,29.92,West,281,3.0,16.0,68,0.00,,,0.00,Wunderground v.1.15,2013-07-18 14:18:00,
2013-07-18 09:23:00,81.1,70.0,29.92,SSW,198,0.0,6.0,69,0.00,,,0.00,Wunderground v.1.15,2013-07-18 14:23:00,
2013-07-18 09:28:00,81.4,69.8,29.92,South,178,0.0,11.0,68,0.00,,,0.00,Wunderground v.1.15,2013-07-18 14:28:00,
2013-07-18 09:33:00,81.6,69.6,29.92,WSW,240,7.0,15.0,67,0.00,,,0.00,Wunderground v.1.15,2013-07-18 14:33:00,
2013-07-18 09:38:00,81.8,68.9,29.92,SW,234,0.0,15.0,65,0.00,,,0.00,Wunderground v.1.15,2013-07-18 14:38:00,
2013-07-18 09:44:00,82.2,68.8,29.92,WSW,250,5.0,10.0,64,0.00,,,0.00,Wunderground v.1.15,2013-07-18 14:44:00,
2013-07-18 09:49:00,82.8,69.4,29.91,West,263,0.0,10.0,64,0.00,,,0.00,Wunderground v.1.15,2013-07-18 14:49:00,
2013-07-18 09:54:00,83.2,68.3,29.91,SSW,205,4.0,11.0,61,0.00,,,0.00,Wunderground v.1.15,2013-07-18 14:54:00,
2013-07-18 09:59:00,83.4,69.0,29.91,SSE,155,3.0,11.0,62,0.00,,,0.00,Wunderground v.1.15,2013-07-18 14:59:00,
2013-07-18 10:04:00,83.8,68.9,29.90,South,183,5.0,10.0,61,0.00,,,0.00,Wunderground v.1.15,2013-07-18 15:04:00,
2013-07-18 10:09:00,83.6,68.2,29.90,SSE,154,9.0,14.0,60,0.00,,,0.00,Wunderground v.1.15,2013-07-18 15:09:00,
2013-07-18 10:14:00,83.6,68.7,29.90,SSW,200,1.0,13.0,61,0.00,,,0.00,Wunderground v.1.15,2013-07-18 15:14:00,
2013-07-18 10:19:00,84.0,68.6,29.90,SSW,210,4.0,14.0,60,0.00,,,0.00,Wunderground v.1.15,2013-07-18 15:19:00,
2013-07-18 10:24:00,84.3,69.4,29.90,South,190,2.0,13.0,61,0.00,,,0.00,Wunderground v.1.15,2013-07-18 15:24:00,
2013-07-18 10:29:00,84.7,68.8,29.90,SSW,205,5.0,17.0,59,0.00,,,0.00,Wunderground v.1.15,2013-07-18 15:29:00,
2013-07-18 10:34:00,84.9,69.0,29.90,South,173,0.0,10.0,59,0.00,,,0.00,Wunderground v.1.15,2013-07-18 15:34:00,
2013-07-18 10:39:00,85.1,69.2,29.90,SSE,157,8.0,14.0,59,0.00,,,0.00,Wunderground v.1.15,2013-07-18 15:39:00,
2013-07-18 10:44:00,84.9,68.5,29.90,SW,223,0.0,12.0,58,0.00,,,0.00,Wunderground v.1.15,2013-07-18 15:44:00,
2013-07-18 10:49:00,85.1,68.7,29.89,West,268,5.0,12.0,58,0.00,,,0.00,Wunderground v.1.15,2013-07-18 15:49:00,
2013-07-18 10:54:00,85.3,68.8,29.89,SSW,196,3.0,13.0,58,0.00,,,0.00,Wunderground v.1.15,2013-07-18 15:54:00,
2013-07-18 10:59:00,85.5,69.0,29.89,South,188,4.0,13.0,58,0.00,,,0.00,Wunderground v.1.15,2013-07-18 15:59:00,
2013-07-18 11:04:00,85.5,69.0,29.89,South,184,4.0,10.0,58,0.00,,,0.00,Wunderground v.1.15,2013-07-18 16:04:00,
2013-07-18 11:10:00,85.9,68.9,29.89,South,188,2.0,4.0,57,0.00,,,0.00,Wunderground v.1.15,2013-07-18 16:10:00,
2013-07-18 11:15:00,86.1,68.6,29.89,West,260,2.0,16.0,56,0.00,,,0.00,Wunderground v.1.15,2013-07-18 16:15:00,
2013-07-18 11:20:00,86.1,69.1,29.88,WSW,244,15.0,15.0,57,0.00,,,0.00,Wunderground v.1.15,2013-07-18 16:20:00,
2013-07-18 11:25:00,86.1,68.0,29.88,SSE,164,7.0,15.0,55,0.00,,,0.00,Wunderground v.1.15,2013-07-18 16:25:00,
2013-07-18 11:30:00,86.1,68.6,29.88,SSW,202,1.0,6.0,56,0.00,,,0.00,Wunderground v.1.15,2013-07-18 16:30:00,
2013-07-18 11:35:00,86.1,67.5,29.88,South,180,2.0,14.0,54,0.00,,,0.00,Wunderground v.1.15,2013-07-18 16:35:00,
2013-07-18 11:40:00,86.1,67.0,29.88,SSW,211,9.0,10.0,53,0.00,,,0.00,Wunderground v.1.15,2013-07-18 16:40:00,
2013-07-18 11:45:00,86.5,68.4,29.88,SSE,150,6.0,16.0,55,0.00,,,0.00,Wunderground v.1.15,2013-07-18 16:45:00,
2013-07-18 11:50:00,86.5,67.3,29.88,WNW,288,4.0,9.0,53,0.00,,,0.00,Wunderground v.1.15,2013-07-18 16:50:00,
2013-07-18 11:55:00,87.0,68.3,29.88,SSW,202,7.0,12.0,54,0.00,,,0.00,Wunderground v.1.15,2013-07-18 16:55:00,
2013-07-18 12:00:00,87.2,68.5,29.88,South,174,6.0,11.0,54,0.00,,,0.00,Wunderground v.1.15,2013-07-18 17:00:00,
2013-07-18 12:05:00,87.4,68.7,29.87,SSW,211,0.0,11.0,54,0.00,,,0.00,Wunderground v.1.15,2013-07-18 17:05:00,
2013-07-18 12:10:00,87.6,68.4,29.87,SSW,211,1.0,13.0,53,0.00,,,0.00,Wunderground v.1.15,2013-07-18 17:10:00,
2013-07-18 12:15:00,87.2,67.4,29.87,SSW,195,3.0,14.0,52,0.00,,,0.00,Wunderground v.1.15,2013-07-18 17:15:00,
2013-07-18 12:20:00,87.4,67.1,29.87,SW,228,5.0,6.0,51,0.00,,,0.00,Wunderground v.1.15,2013-07-18 17:20:00,
2013-07-18 12:25:00,88.0,68.7,29.87,SSW,194,6.0,6.0,53,0.00,,,0.00,Wunderground v.1.15,2013-07-18 17:25:00,
2013-07-18 12:30:00,88.2,68.4,29.87,SSW,213,6.0,7.0,52,0.00,,,0.00,Wunderground v.1.15,2013-07-18 17:30:00,
2013-07-18 12:35:00,87.6,66.7,29.87,SSE,167,3.0,20.0,50,0.00,,,0.00,Wunderground v.1.15,2013-07-18 17:35:00,
2013-07-18 12:41:00,87.4,67.1,29.87,SSW,202,6.0,11.0,51,0.00,,,0.00,Wunderground v.1.15,2013-07-18 17:41:00,
2013-07-18 12:46:00,87.4,67.1,29.86,South,183,6.0,17.0,51,0.00,,,0.00,Wunderground v.1.15,2013-07-18 17:46:00,
2013-07-18 12:51:00,87.8,68.0,29.86,SSW,192,6.0,11.0,52,0.00,,,0.00,Wunderground v.1.15,2013-07-18 17:51:00,
2013-07-18 12:56:00,87.8,66.8,29.86,SSE,161,2.0,17.0,50,0.00,,,0.00,Wunderground v.1.15,2013-07-18 17:56:00,
2013-07-18 13:01:00,87.8,66.3,29.85,SSW,207,5.0,9.0,49,0.00,,,0.00,Wunderground v.1.15,2013-07-18 18:01:00,
2013-07-18 13:06:00,87.8,66.8,29.85,SW,215,19.0,19.0,50,0.00,,,0.00,Wunderground v.1.15,2013-07-18 18:06:00,
2013-07-18 13:11:00,87.8,66.8,29.85,South,172,0.0,7.0,50,0.00,,,0.00,Wunderground v.1.15,2013-07-18 18:11:00,
2013-07-18 13:16:00,88.2,67.2,29.85,SW,234,9.0,15.0,50,0.00,,,0.00,Wunderground v.1.15,2013-07-18 18:16:00,
2013-07-18 13:21:00,88.2,66.0,29.85,SW,219,4.0,12.0,48,0.00,,,0.00,Wunderground v.1.15,2013-07-18 18:21:00,
2013-07-18 13:26:00,88.6,65.8,29.85,SW,217,6.0,15.0,47,0.00,,,0.00,Wunderground v.1.15,2013-07-18 18:26:00,
2013-07-18 13:31:00,88.6,67.6,29.84,South,190,4.0,7.0,50,0.00,,,0.00,Wunderground v.1.15,2013-07-18 18:31:00,
2013-07-18 13:36:00,88.8,67.8,29.84,South,171,8.0,14.0,50,0.00,,,0.00,Wunderground v.1.15,2013-07-18 18:36:00,
2013-07-18 13:41:00,88.8,66.6,29.84,SSW,199,13.0,14.0,48,0.00,,,0.00,Wunderground v.1.15,2013-07-18 18:41:00,
2013-07-18 13:46:00,89.0,66.2,29.84,SSE,165,4.0,14.0,47,0.00,,,0.00,Wunderground v.1.15,2013-07-18 18:46:00,
2013-07-18 13:51:00,89.3,67.0,29.84,SW,215,2.0,11.0,48,0.00,,,0.00,Wunderground v.1.15,2013-07-18 18:51:00,
2013-07-18 13:56:00,89.0,66.8,29.84,South,171,7.0,14.0,48,0.00,,,0.00,Wunderground v.1.15,2013-07-18 18:56:00,
2013-07-18 14:01:00,89.0,66.8,29.83,South,191,0.0,11.0,48,0.00,,,0.00,Wunderground v.1.15,2013-07-18 19:01:00,
2013-07-18 14:06:00,89.5,66.6,29.83,South,178,6.0,13.0,47,0.00,,,0.00,Wunderground v.1.15,2013-07-18 19:06:00,
2013-07-18 14:11:00,89.7,66.8,29.83,WSW,238,9.0,14.0,47,0.00,,,0.00,Wunderground v.1.15,2013-07-18 19:11:00,
2013-07-18 14:17:00,89.5,67.8,29.83,West,271,2.0,16.0,49,0.00,,,0.00,Wunderground v.1.15,2013-07-18 19:17:00,
2013-07-18 14:22:00,89.7,68.0,29.83,SSE,165,4.0,10.0,49,0.00,,,0.00,Wunderground v.1.15,2013-07-18 19:22:00,
2013-07-18 14:27:00,89.5,67.2,29.83,North,360,4.0,18.0,48,0.00,,,0.00,Wunderground v.1.15,2013-07-18 19:27:00,
2013-07-18 14:32:00,89.5,67.8,29.83,SSE,147,4.0,7.0,49,0.00,,,0.00,Wunderground v.1.15,2013-07-18 19:32:00,
2013-07-18 14:37:00,89.7,68.0,29.83,SSW,205,12.0,17.0,49,0.00,,,0.00,Wunderground v.1.15,2013-07-18 19:37:00,
2013-07-18 14:42:00,89.5,67.2,29.83,SW,221,4.0,15.0,48,0.00,,,0.00,Wunderground v.1.15,2013-07-18 19:42:00,
2013-07-18 14:47:00,89.7,66.8,29.82,South,173,5.0,15.0,47,0.00,,,0.00,Wunderground v.1.15,2013-07-18 19:47:00,
2013-07-18 14:51:00,89.9,66.3,29.82,SSW,196,10.0,16.0,46,0.00,,,0.00,Wunderground v.1.15,2013-07-18 19:51:00,
2013-07-18 14:57:00,89.7,66.2,29.82,South,171,6.0,16.0,46,0.00,,,0.00,Wunderground v.1.15,2013-07-18 19:57:00,
2013-07-18 15:02:00,89.7,67.4,29.82,South,172,4.0,10.0,48,0.00,,,0.00,Wunderground v.1.15,2013-07-18 20:02:00,
2013-07-18 15:07:00,89.3,67.0,29.82,SSE,157,5.0,17.0,48,0.00,,,0.00,Wunderground v.1.15,2013-07-18 20:07:00,
2013-07-18 15:12:00,89.3,67.0,29.82,SE,132,4.0,15.0,48,0.00,,,0.00,Wunderground v.1.15,2013-07-18 20:12:00,
2013-07-18 15:17:00,89.5,67.8,29.81,SSE,153,6.0,15.0,49,0.00,,,0.00,Wunderground v.1.15,2013-07-18 20:17:00,
2013-07-18 15:22:00,89.5,67.8,29.81,South,177,3.0,15.0,49,0.00,,,0.00,Wunderground v.1.15,2013-07-18 20:22:00,
2013-07-18 15:27:00,89.9,67.6,29.81,WNW,295,4.0,15.0,48,0.00,,,0.00,Wunderground v.1.15,2013-07-18 20:27:00,
2013-07-18 15:32:00,89.7,67.4,29.81,SSE,167,4.0,12.0,48,0.00,,,0.00,Wunderground v.1.15,2013-07-18 20:32:00,
2013-07-18 15:37:00,89.3,67.6,29.81,North,360,10.0,15.0,49,0.00,,,0.00,Wunderground v.1.15,2013-07-18 20:37:00,
2013-07-18 15:42:00,89.7,67.4,29.81,SW,224,13.0,14.0,48,0.00,,,0.00,Wunderground v.1.15,2013-07-18 20:42:00,
2013-07-18 15:47:00,90.3,67.3,29.80,South,175,1.0,14.0,47,0.00,,,0.00,Wunderground v.1.15,2013-07-18 20:47:00,
2013-07-18 15:52:00,90.1,67.2,29.80,South,190,4.0,17.0,47,0.00,,,0.00,Wunderground v.1.15,2013-07-18 20:52:00,
2013-07-18 15:57:00,89.9,67.0,29.80,SSE,158,5.0,20.0,47,0.00,,,0.00,Wunderground v.1.15,2013-07-18 20:57:00,
2013-07-18 16:02:00,89.9,67.6,29.80,South,188,3.0,12.0,48,0.00,,,0.00,Wunderground v.1.15,2013-07-18 21:02:00,
2013-07-18 16:07:00,89.9,68.2,29.80,WSW,244,2.0,16.0,49,0.00,,,0.00,Wunderground v.1.15,2013-07-18 21:07:00,
2013-07-18 16:12:00,90.1,68.4,29.80,South,186,7.0,12.0,49,0.00,,,0.00,Wunderground v.1.15,2013-07-18 21:12:00,
2013-07-18 16:17:00,89.9,67.6,29.79,SSW,207,5.0,13.0,48,0.00,,,0.00,Wunderground v.1.15,2013-07-18 21:17:00,
2013-07-18 16:22:00,89.9,67.6,29.79,WNW,285,15.0,17.0,48,0.00,,,0.00,Wunderground v.1.15,2013-07-18 21:22:00,
2013-07-18 16:27:00,89.9,67.6,29.79,SSW,194,2.0,17.0,48,0.00,,,0.00,Wunderground v.1.15,2013-07-18 21:27:00,
2013-07-18 16:32:00,89.9,68.2,29.78,SSW,193,3.0,13.0,49,0.00,,,0.00,Wunderground v.1.15,2013-07-18 21:32:00,
2013-07-18 16:37:00,89.9,67.6,29.78,SSW,197,4.0,18.0,48,0.00,,,0.00,Wunderground v.1.15,2013-07-18 21:37:00,
2013-07-18 16:42:00,90.1,67.2,29.78,WSW,242,2.0,11.0,47,0.00,,,0.00,Wunderground v.1.15,2013-07-18 21:42:00,
2013-07-18 16:47:00,90.1,67.2,29.78,SSW,192,14.0,17.0,47,0.00,,,0.00,Wunderground v.1.15,2013-07-18 21:47:00,
2013-07-18 16:52:00,90.1,67.2,29.78,South,177,3.0,13.0,47,0.00,,,0.00,Wunderground v.1.15,2013-07-18 21:52:00,
2013-07-18 16:57:00,90.1,67.8,29.78,South,175,4.0,13.0,48,0.00,,,0.00,Wunderground v.1.15,2013-07-18 21:57:00,
2013-07-18 17:02:00,89.7,67.4,29.77,SSW,194,3.0,15.0,48,0.00,,,0.00,Wunderground v.1.15,2013-07-18 22:02:00,
2013-07-18 17:07:00,89.5,67.2,29.77,WSW,240,8.0,20.0,48,0.00,,,0.00,Wunderground v.1.15,2013-07-18 22:07:00,
2013-07-18 17:12:00,89.3,67.0,29.77,South,173,3.0,13.0,48,0.00,,,0.00,Wunderground v.1.15,2013-07-18 22:12:00,
2013-07-18 17:17:00,89.5,66.6,29.76,SSE,160,10.0,15.0,47,0.00,,,0.00,Wunderground v.1.15,2013-07-18 22:17:00,
2013-07-18 17:23:00,89.5,67.2,29.76,South,176,4.0,11.0,48,0.00,,,0.00,Wunderground v.1.15,2013-07-18 22:23:00,
2013-07-18 17:28:00,89.5,67.2,29.76,SSW,197,3.0,16.0,48,0.00,,,0.00,Wunderground v.1.15,2013-07-18 22:28:00,
2013-07-18 17:33:00,89.5,67.8,29.76,SSW,196,1.0,15.0,49,0.00,,,0.00,Wunderground v.1.15,2013-07-18 22:33:00,
2013-07-18 17:38:00,89.5,67.2,29.76,SW,217,12.0,22.0,48,0.00,,,0.00,Wunderground v.1.15,2013-07-18 22:38:00,
2013-07-18 17:43:00,89.3,66.4,29.76,SSE,148,5.0,18.0,47,0.00,,,0.00,Wunderground v.1.15,2013-07-18 22:43:00,
2013-07-18 17:48:00,89.3,66.4,29.75,SW,215,3.0,18.0,47,0.00,,,0.00,Wunderground v.1.15,2013-07-18 22:48:00,
2013-07-18 17:53:00,89.5,66.6,29.75,SSW,194,7.0,11.0,47,0.00,,,0.00,Wunderground v.1.15,2013-07-18 22:53:00,
2013-07-18 17:58:00,89.5,68.4,29.75,WSW,238,6.0,15.0,50,0.00,,,0.00,Wunderground v.1.15,2013-07-18 22:58:00,
2013-07-18 18:03:00,89.3,67.0,29.75,SSW,196,5.0,11.0,48,0.00,,,0.00,Wunderground v.1.15,2013-07-18 23:03:00,
2013-07-18 18:08:00,89.3,67.6,29.75,SW,219,5.0,11.0,49,0.00,,,0.00,Wunderground v.1.15,2013-07-18 23:08:00,
2013-07-18 18:13:00,89.5,67.2,29.75,WSW,244,6.0,12.0,48,0.00,,,0.00,Wunderground v.1.15,2013-07-18 23:13:00,
2013-07-18 18:18:00,89.0,67.4,29.75,South,178,5.0,17.0,49,0.00,,,0.00,Wunderground v.1.15,2013-07-18 23:18:00,
2013-07-18 18:23:00,88.8,67.2,29.75,South,185,5.0,19.0,49,0.00,,,0.00,Wunderground v.1.15,2013-07-18 23:23:00,
2013-07-18 18:28:00,88.6,67.0,29.75,SSE,162,3.0,19.0,49,0.00,,,0.00,Wunderground v.1.15,2013-07-18 23:28:00,
2013-07-18 18:33:00,88.8,67.2,29.74,South,171,3.0,8.0,49,0.00,,,0.00,Wunderground v.1.15,2013-07-18 23:33:00,
2013-07-18 18:38:00,88.8,66.6,29.74,South,173,3.0,16.0,48,0.00,,,0.00,Wunderground v.1.15,2013-07-18 23:38:00,
2013-07-18 18:43:00,88.6,67.0,29.74,SSW,192,11.0,12.0,49,0.00,,,0.00,Wunderground v.1.15,2013-07-18 23:43:00,
2013-07-18 18:48:00,88.4,66.8,29.74,SSE,168,3.0,16.0,49,0.00,,,0.00,Wunderground v.1.15,2013-07-18 23:48:00,
2013-07-18 18:53:00,88.4,66.8,29.74,SSW,192,2.0,12.0,49,0.00,,,0.00,Wunderground v.1.15,2013-07-18 23:53:00,
2013-07-18 18:58:00,88.2,66.6,29.74,SSE,148,4.0,13.0,49,0.00,,,0.00,Wunderground v.1.15,2013-07-18 23:58:00,
2013-07-18 19:03:00,88.0,67.0,29.74,SSW,199,1.0,15.0,50,0.00,,,0.00,Wunderground v.1.15,2013-07-19 00:03:00,
2013-07-18 19:10:00,88.0,67.0,29.74,SW,230,9.0,9.0,50,0.00,,,0.00,Wunderground v.1.15,2013-07-19 00:10:00,
2013-07-18 19:15:00,88.0,67.6,29.74,North,360,9.0,12.0,51,0.00,,,0.00,Wunderground v.1.15,2013-07-19 00:15:00,
2013-07-18 19:20:00,87.8,67.4,29.74,North,360,6.0,9.0,51,0.00,,,0.00,Wunderground v.1.15,2013-07-19 00:20:00,
2013-07-18 19:25:00,87.6,67.2,29.74,North,360,10.0,13.0,51,0.00,,,0.00,Wunderground v.1.15,2013-07-19 00:25:00,
2013-07-18 19:30:00,87.6,67.2,29.74,WSW,244,0.0,4.0,51,0.00,,,0.00,Wunderground v.1.15,2013-07-19 00:30:00,
2013-07-18 19:35:00,87.4,67.6,29.73,WNW,289,0.0,12.0,52,0.00,,,0.00,Wunderground v.1.15,2013-07-19 00:35:00,
2013-07-18 19:40:00,87.2,67.4,29.73,SSW,196,2.0,6.0,52,0.00,,,0.00,Wunderground v.1.15,2013-07-19 00:40:00,
2013-07-18 19:45:00,87.0,67.8,29.73,SSE,164,2.0,9.0,53,0.00,,,0.00,Wunderground v.1.15,2013-07-19 00:45:00,
2013-07-18 19:50:00,86.7,68.1,29.73,SSW,204,2.0,5.0,54,0.00,,,0.00,Wunderground v.1.15,2013-07-19 00:50:00,
2013-07-18 19:55:00,86.5,67.9,29.73,SSE,156,3.0,13.0,54,0.00,,,0.00,Wunderground v.1.15,2013-07-19 00:55:00,
2013-07-18 20:00:00,86.3,68.2,29.73,SW,225,0.0,6.0,55,0.00,,,0.00,Wunderground v.1.15,2013-07-19 01:00:00,
2013-07-18 20:05:00,86.1,68.0,29.73,SSW,205,4.0,9.0,55,0.00,,,0.00,Wunderground v.1.15,2013-07-19 01:05:00,
2013-07-18 20:10:00,85.9,68.4,29.73,South,182,1.0,7.0,56,0.00,,,0.00,Wunderground v.1.15,2013-07-19 01:10:00,
2013-07-18 20:15:00,85.7,68.2,29.73,West,264,11.0,11.0,56,0.00,,,0.00,Wunderground v.1.15,2013-07-19 01:15:00,
2013-07-18 20:20:00,85.5,68.0,29.72,South,178,3.0,9.0,56,0.00,,,0.00,Wunderground v.1.15,2013-07-19 01:20:00,
2013-07-18 20:25:00,85.5,68.0,29.72,SSW,209,4.0,12.0,56,0.00,,,0.00,Wunderground v.1.15,2013-07-19 01:25:00,
2013-07-18 20:30:00,85.3,68.3,29.72,SSW,211,0.0,3.0,57,0.00,,,0.00,Wunderground v.1.15,2013-07-19 01:30:00,
2013-07-18 20:35:00,84.9,68.5,29.72,SSW,200,6.0,9.0,58,0.00,,,0.00,Wunderground v.1.15,2013-07-19 01:35:00,
2013-07-18 20:40:00,84.7,68.3,29.72,South,171,4.0,4.0,58,0.00,,,0.00,Wunderground v.1.15,2013-07-19 01:40:00,
2013-07-18 20:45:00,84.5,68.1,29.72,SSW,200,3.0,12.0,58,0.00,,,0.00,Wunderground v.1.15,2013-07-19 01:45:00,
2013-07-18 20:51:00,84.3,68.4,29.72,South,184,3.0,5.0,59,0.00,,,0.00,Wunderground v.1.15,2013-07-19 01:51:00,
2013-07-18 20:56:00,84.1,68.2,29.72,South,169,3.0,10.0,59,0.00,,,0.00,Wunderground v.1.15,2013-07-19 01:56:00,
2013-07-18 21:01:00,84.0,68.1,29.72,South,176,1.0,9.0,59,0.00,,,0.00,Wunderground v.1.15,2013-07-19 02:01:00,
2013-07-18 21:06:00,84.0,68.1,29.72,South,185,5.0,9.0,59,0.00,,,0.00,Wunderground v.1.15,2013-07-19 02:06:00,
2013-07-18 21:11:00,83.8,67.9,29.72,SW,223,5.0,6.0,59,0.00,,,0.00,Wunderground v.1.15,2013-07-19 02:11:00,
2013-07-18 21:16:00,83.6,68.2,29.71,South,187,3.0,9.0,60,0.00,,,0.00,Wunderground v.1.15,2013-07-19 02:16:00,
2013-07-18 21:21:00,83.6,68.2,29.71,SSW,200,2.0,3.0,60,0.00,,,0.00,Wunderground v.1.15,2013-07-19 02:21:00,
2013-07-18 21:26:00,83.6,68.2,29.71,SSE,163,3.0,11.0,60,0.00,,,0.00,Wunderground v.1.15,2013-07-19 02:26:00,
2013-07-18 21:31:00,83.4,68.1,29.71,SSW,199,5.0,9.0,60,0.00,,,0.00,Wunderground v.1.15,2013-07-19 02:31:00,
2013-07-18 21:36:00,83.4,68.1,29.71,SSE,167,2.0,9.0,60,0.00,,,0.00,Wunderground v.1.15,2013-07-19 02:36:00,
2013-07-18 21:41:00,83.4,68.1,29.71,SSW,198,2.0,6.0,60,0.00,,,0.00,Wunderground v.1.15,2013-07-19 02:41:00,
2013-07-18 21:46:00,83.2,67.9,29.71,SSW,195,1.0,7.0,60,0.00,,,0.00,Wunderground v.1.15,2013-07-19 02:46:00,
2013-07-18 21:51:00,83.0,67.7,29.71,WSW,258,2.0,6.0,60,0.00,,,0.00,Wunderground v.1.15,2013-07-19 02:51:00,
2013-07-18 21:56:00,83.0,67.7,29.71,SSE,165,0.0,13.0,60,0.00,,,0.00,Wunderground v.1.15,2013-07-19 02:56:00,
2013-07-18 22:01:00,83.0,67.7,29.72,SSE,167,0.0,4.0,60,0.00,,,0.00,Wunderground v.1.15,2013-07-19 03:01:00,
2013-07-18 22:06:00,82.8,68.0,29.72,SW,228,1.0,10.0,61,0.00,,,0.00,Wunderground v.1.15,2013-07-19 03:06:00,
2013-07-18 22:11:00,82.8,68.0,29.72,South,183,3.0,12.0,61,0.00,,,0.00,Wunderground v.1.15,2013-07-19 03:11:00,
2013-07-18 22:16:00,82.6,67.8,29.71,SW,215,4.0,12.0,61,0.00,,,0.00,Wunderground v.1.15,2013-07-19 03:16:00,
2013-07-18 22:21:00,82.4,67.6,29.71,SSE,163,5.0,5.0,61,0.00,,,0.00,Wunderground v.1.15,2013-07-19 03:21:00,
2013-07-18 22:26:00,82.4,68.1,29.71,South,185,2.0,9.0,62,0.00,,,0.00,Wunderground v.1.15,2013-07-19 03:26:00,
2013-07-18 22:31:00,82.2,67.9,29.71,South,183,3.0,4.0,62,0.00,,,0.00,Wunderground v.1.15,2013-07-19 03:31:00,
2013-07-18 22:36:00,82.0,67.7,29.71,SSW,210,1.0,9.0,62,0.00,,,0.00,Wunderground v.1.15,2013-07-19 03:36:00,
2013-07-18 22:41:00,82.0,67.7,29.71,SSW,200,3.0,4.0,62,0.00,,,0.00,Wunderground v.1.15,2013-07-19 03:41:00,
2013-07-18 22:46:00,81.8,68.0,29.71,SW,219,4.0,9.0,63,0.00,,,0.00,Wunderground v.1.15,2013-07-19 03:46:00,
2013-07-18 22:51:00,81.6,67.8,29.71,SSE,152,3.0,7.0,63,0.00,,,0.00,Wunderground v.1.15,2013-07-19 03:51:00,
2013-07-18 22:56:00,81.6,68.2,29.71,SW,223,0.0,8.0,64,0.00,,,0.00,Wunderground v.1.15,2013-07-19 03:56:00,
2013-07-18 23:01:00,81.4,68.1,29.71,South,186,3.0,3.0,64,0.00,,,0.00,Wunderground v.1.15,2013-07-19 04:01:00,
2013-07-18 23:02:00,81.4,68.1,29.71,WSW,238,4.0,5.0,64,0.00,,,0.00,Wunderground v.1.15,2013-07-19 04:02:00,
2013-07-18 23:03:00,81.4,68.1,29.71,South,191,6.0,10.0,64,0.00,,,0.00,Wunderground v.1.15,2013-07-19 04:03:00,
2013-07-18 23:08:00,81.4,68.1,29.71,SSE,166,2.0,10.0,64,0.00,,,0.00,Wunderground v.1.15,2013-07-19 04:08:00,
2013-07-18 23:13:00,81.2,67.9,29.71,WSW,245,5.0,6.0,64,0.00,,,0.00,Wunderground v.1.15,2013-07-19 04:13:00,
2013-07-18 23:18:00,81.1,67.8,29.71,SSW,193,2.0,10.0,64,0.00,,,0.00,Wunderground v.1.15,2013-07-19 04:18:00,
2013-07-18 23:20:00,81.1,67.8,29.71,SSE,154,7.0,7.0,64,0.00,,,0.00,Wunderground v.1.15,2013-07-19 04:20:00,
2013-07-18 23:23:00,81.1,68.2,29.71,South,174,3.0,8.0,65,0.00,,,0.00,Wunderground v.1.15,2013-07-19 04:23:00,
2013-07-18 23:28:00,80.9,68.0,29.71,SSE,161,5.0,9.0,65,0.00,,,0.00,Wunderground v.1.15,2013-07-19 04:28:00,
2013-07-18 23:33:00,80.7,68.3,29.71,SSW,207,3.0,5.0,66,0.00,,,0.00,Wunderground v.1.15,2013-07-19 04:33:00,
2013-07-18 23:38:00,80.7,68.3,29.71,SSW,202,2.0,9.0,66,0.00,,,0.00,Wunderground v.1.15,2013-07-19 04:38:00,
2013-07-18 23:43:00,80.5,68.1,29.71,SSE,167,4.0,6.0,66,0.00,,,0.00,Wunderground v.1.15,2013-07-19 04:43:00,
2013-07-18 23:48:00,80.5,68.1,29.71,South,182,3.0,9.0,66,0.00,,,0.00,Wunderground v.1.15,2013-07-19 04:48:00,
2013-07-18 23:53:00,80.3,67.9,29.71,South,178,2.0,9.0,66,0.00,,,0.00,Wunderground v.1.15,2013-07-19 04:53:00,
2013-07-18 23:58:00,80.3,68.3,29.71,SSW,202,3.0,10.0,67,0.00,,,0.00,Wunderground v.1.15,2013-07-19 04:58:00,